Location: Ravensburg
(47.7866°N, 9.6124°E)
Time: 02:35:12
(UTC+02:00)

CAS-6 - Pass Details

Date: 13 March 2026
Orbit: 601 x 618 km, 97.8° (Epoch: 14 April)

Event Time Altitude Azimuth Distance (km) Brightness Sun altitude
Exits shadow 21:54:30 14° 357° (N) 1,701 ? -33.7°
Drops below altitude 10° 21:55:08 10° 355° (N) 1,956 ? -33.8°
Sets 21:57:21 0° 351° (N) 2,865 ? -34.1°
